World > North America > United States > New York
Hourly Weather in Hancock, New YorkHancock, New York Hourly Weather

Hancock, NY Hourly Weather

Hourly Weather Hancock, New YorkHourly Weather in Hancock, NY
Lat: 41.95N, Lon: 75.28W  ICAO: KMSV
Web Search

Did you know? You can add this page to Bookmarks by pressing the Ctrl key & d key at the same time. Mac users press command & d.

Feedback

Hancock Hourly Weather

36 Hour Weather Scroll   °F Click to change Hancock hourly weather to Imperial units.Click to change Hancock hourly weather to Metric units. °C
Currently, Clear, temperature is 30°F-1°C, dew point 19°F-7°C, humidity 64%. Wind direction is WNW at 12 mph19 km/h with visibility of 10.00 mi16 km. Barometric pressure is 30 in1016 mb.

Dec 07
10:00 AM

Dec 07
11:00 AM

Dec 07
NOON

Dec 07
1:00 PM

Dec 07
2:00 PM

Dec 07
3:00 PM

Dec 07
4:00 PM

Dec 07
5:00 PM

Dec 07
6:00 PM

Dec 07
7:00 PM

Dec 07
8:00 PM

Dec 07
9:00 PM

Dec 07
10:00 PM

Dec 07
11:00 PM

Dec 08
MIDNIGHT

Dec 08
1:00 AM

Dec 08
2:00 AM

Dec 08
3:00 AM

Dec 08
4:00 AM

Dec 08
5:00 AM

Dec 08
6:00 AM

Dec 08
7:00 AM

Dec 08
8:00 AM

Dec 08
9:00 AM

Dec 08
10:00 AM

Dec 08
11:00 AM

Dec 08
NOON

Dec 08
1:00 PM

Dec 08
2:00 PM

Dec 08
3:00 PM

Dec 08
4:00 PM

Dec 08
5:00 PM

Dec 08
6:00 PM

Dec 08
7:00 PM

Dec 08
8:00 PM

Dec 08
9:00 PM
Mostly Cloudy Mostly Cloudy Cloudy Cloudy Cloudy Cloudy Cloudy Cloudy Mostly Cloudy Mostly Cloudy Mostly Cloudy Cloudy Cloudy Cloudy Cloudy Cloudy Cloudy Cloudy Cloudy Cloudy Cloudy Cloudy Cloudy Cloudy Cloudy Cloudy Cloudy Cloudy Cloudy Cloudy Cloudy Cloudy Cloudy Cloudy Cloudy Cloudy
Mostly Cloudy Mostly Cloudy Cloudy Cloudy Cloudy Cloudy Cloudy Cloudy Mostly Cloudy Mostly Cloudy Mostly Cloudy Cloudy Cloudy Cloudy Cloudy Cloudy Cloudy Cloudy Cloudy Cloudy Cloudy Cloudy Cloudy Cloudy Cloudy Cloudy Cloudy Cloudy Cloudy Cloudy Cloudy Cloudy Cloudy Cloudy Cloudy Cloudy
31°F-1°C 32°F0°C 33°F1°C 34°F1°C 34°F1°C 34°F1°C 34°F1°C 32°F0°C 31°F-1°C 29°F-2°C 28°F-2°C 26°F-3°C 25°F-4°C 24°F-4°C 24°F-4°C 23°F-5°C 23°F-5°C 23°F-5°C 23°F-5°C 23°F-5°C 23°F-5°C 23°F-5°C 25°F-4°C 28°F-2°C 30°F-1°C 31°F-1°C 33°F1°C 34°F1°C 34°F1°C 33°F1°C 33°F1°C 32°F0°C 30°F-1°C 29°F-2°C 28°F-2°C 28°F-2°C
- - - - - - - - - - - - - - - - - - - - - - - - - - - - Snow Snow Snow Snow Snow Snow Snow Snow
0% 0% 0% 0% 0% 0% 0% 0% 0% 0% 3% 3% 3% 3% 3% 3% 16% 16% 16% 16% 16% 16% 11% 11% 11% 11% 11% 11% 26% 26% 26% 26% 26% 26% 22% 22%
17°F-8°C 16°F-9°C 15°F-9°C 14°F-10°C 14°F-10°C 13°F-11°C 13°F-11°C 13°F-11°C 14°F-10°C 14°F-10°C 14°F-10°C 15°F-9°C 15°F-9°C 15°F-9°C 15°F-9°C 15°F-9°C 15°F-9°C 16°F-9°C 16°F-9°C 17°F-8°C 17°F-8°C 18°F-8°C 19°F-7°C 20°F-7°C 21°F-6°C 20°F-7°C 20°F-7°C 19°F-7°C 19°F-7°C 19°F-7°C 19°F-7°C 19°F-7°C 20°F-7°C 20°F-7°C 20°F-7°C 20°F-7°C
56% 51% 47% 43% 43% 41% 41% 45% 49% 53% 55% 63% 65% 68% 68% 71% 71% 74% 74% 77% 77% 81% 78% 72% 69% 63% 58% 54% 54% 56% 56% 58% 66% 69% 72% 72%
W W W W W W W W SSW SSW W W WNW SSW SW S S S S SSE SE SE SE SE SSE SSE S S SW SSW SSW W W WNW WNW NW
9 mph 9 mph 9 mph 9 mph 9 mph 6 mph 6 mph 6 mph 3 mph 3 mph 3 mph 2 mph 2 mph 2 mph 2 mph 2 mph 2 mph 2 mph 2 mph 2 mph 2 mph 2 mph 2 mph 4 mph 4 mph 4 mph 4 mph 4 mph 4 mph 4 mph 4 mph 4 mph 4 mph 4 mph 4 mph 7 mph
10 mi16 km 10 mi16 km 10 mi16 km 10 mi16 km 10 mi16 km 10 mi16 km 10 mi16 km 10 mi16 km 10 mi16 km 10 mi16 km 10 mi16 km 10 mi16 km 10 mi16 km 10 mi16 km 10 mi16 km 10 mi16 km 10 mi16 km 10 mi16 km 10 mi16 km 10 mi16 km 10 mi16 km 10 mi16 km 10 mi16 km 10 mi16 km 10 mi16 km 10 mi16 km 10 mi16 km 10 mi16 km 10 mi16 km 10 mi16 km 10 mi16 km 6 mi10 km 6 mi10 km 5 mi8 km 6 mi10 km 6 mi10 km
Hour (EST)
Weather
Clouds
Temperature
Precip. Type
POP
Dewpoint
Humidity
Wind Direction
Wind Speed
Visibility
POP = Probability of Precipitation. ** Indicates missing data/values from model statistics.

24 Hour Forecast

Rest of Today - Mostly cloudy. Highs in the lower 30s. West winds 5 to 10 mph with gusts up to 20 mph.
Tonight - Mostly cloudy. A chance of light snow after midnight. Lows in the lower 20s. West winds around 5 mph, becoming south after midnight. Chance of snow 30%.

48 Hour Forecast API Feed


Tue, Dec 7
10:00 am

Tue, Dec 7
11:00 am

Tue, Dec 7
Noon

Tue, Dec 7
1:00 pm

Tue, Dec 7
2:00 pm

Tue, Dec 7
3:00 pm

Tue, Dec 7
4:00 pm

Tue, Dec 7
5:00 pm

Tue, Dec 7
6:00 pm

Tue, Dec 7
7:00 pm

Tue, Dec 7
8:00 pm

Tue, Dec 7
9:00 pm

Tue, Dec 7
10:00 pm

Tue, Dec 7
11:00 pm

Wed, Dec 8
Midnight

Wed, Dec 8
1:00 am

Wed, Dec 8
2:00 am

Wed, Dec 8
3:00 am

Wed, Dec 8
4:00 am

Wed, Dec 8
5:00 am

Wed, Dec 8
6:00 am

Wed, Dec 8
7:00 am

Wed, Dec 8
8:00 am

Wed, Dec 8
9:00 am

Wed, Dec 8
10:00 am

Wed, Dec 8
11:00 am

Wed, Dec 8
Noon

Wed, Dec 8
1:00 pm

Wed, Dec 8
2:00 pm

Wed, Dec 8
3:00 pm

Wed, Dec 8
4:00 pm

Wed, Dec 8
5:00 pm

Wed, Dec 8
6:00 pm

Wed, Dec 8
7:00 pm

Wed, Dec 8
8:00 pm

Wed, Dec 8
9:00 pm

Wed, Dec 8
10:00 pm

Wed, Dec 8
11:00 pm

Thu, Dec 9
Midnight

Thu, Dec 9
1:00 am

Thu, Dec 9
2:00 am

Thu, Dec 9
3:00 am

Thu, Dec 9
4:00 am

Thu, Dec 9
5:00 am

Thu, Dec 9
6:00 am

Thu, Dec 9
7:00 am

Thu, Dec 9
8:00 am

Thu, Dec 9
9:00 am
SunnySunnyPartly CloudyCloudyOvercastOvercastOvercastPartly CloudyCloudyOvercastCloudyOvercastOvercastPartly CloudyOvercastOvercastOvercastOvercastOvercastCloudyOvercastLight SnowLight SnowOvercastCloudyPartly CloudyPartly CloudyCloudyOvercastOvercastOvercastOvercastOvercastLight SnowHeavy SnowLight SnowLight SnowModerate SnowLight SnowLight SnowModerate SnowPartly CloudyPartly CloudyClearClearClearOvercastCloudy
Sunny Sunny Partly cloudy Cloudy Overcast Overcast Overcast Partly cloudy Cloudy Overcast Cloudy Overcast Overcast Partly cloudy Overcast Overcast Overcast Overcast Overcast Cloudy Overcast Light snow Light snow Overcast Cloudy Partly cloudy Partly cloudy Cloudy Overcast Overcast Overcast Overcast Overcast Light snow Heavy snow Light snow Light snow Moderate snow Light snow Light snow Moderate snow Partly cloudy Partly cloudy Clear Clear Clear Overcast Cloudy
29°F
-2°C
31°F
-1°C
31°F
-1°C
31°F
-1°C
31°F
-0°C
31°F
-0°C
31°F
-0°C
31°F
-1°C
30°F
-1°C
29°F
-1°C
29°F
-2°C
29°F
-2°C
28°F
-2°C
28°F
-2°C
28°F
-2°C
28°F
-2°C
29°F
-2°C
29°F
-2°C
29°F
-2°C
29°F
-2°C
28°F
-2°C
28°F
-2°C
28°F
-2°C
28°F
-2°C
29°F
-2°C
31°F
-1°C
33°F
1°C
34°F
1°C
35°F
2°C
35°F
2°C
34°F
1°C
32°F
0°C
31°F
-0°C
29°F
-2°C
28°F
-2°C
28°F
-2°C
27°F
-3°C
27°F
-3°C
26°F
-3°C
25°F
-4°C
25°F
-4°C
26°F
-4°C
24°F
-4°C
24°F
-5°C
24°F
-5°C
24°F
-5°C
23°F
-5°C
24°F
-4°C
16°F
-9°C
15°F
-10°C
14°F
-10°C
14°F
-10°C
14°F
-10°C
15°F
-10°C
15°F
-9°C
17°F
-8°C
18°F
-8°C
19°F
-7°C
20°F
-7°C
21°F
-6°C
21°F
-6°C
22°F
-6°C
22°F
-6°C
22°F
-6°C
22°F
-6°C
22°F
-5°C
22°F
-6°C
21°F
-6°C
21°F
-6°C
21°F
-6°C
21°F
-6°C
21°F
-6°C
20°F
-7°C
19°F
-7°C
18°F
-8°C
17°F
-9°C
16°F
-9°C
17°F
-8°C
19°F
-7°C
20°F
-6°C
21°F
-6°C
26°F
-3°C
27°F
-3°C
26°F
-3°C
26°F
-4°C
24°F
-4°C
23°F
-5°C
23°F
-5°C
23°F
-5°C
22°F
-6°C
20°F
-7°C
18°F
-8°C
17°F
-8°C
17°F
-8°C
17°F
-8°C
19°F
-7°C
30.18 in
1022 mb
30.18 in
1022 mb
30.18 in
1022 mb
30.18 in
1022 mb
30.18 in
1022 mb
30.15 in
1021 mb
30.18 in
1022 mb
30.18 in
1022 mb
30.21 in
1023 mb
30.21 in
1023 mb
30.21 in
1023 mb
30.21 in
1023 mb
30.21 in
1023 mb
30.18 in
1022 mb
30.18 in
1022 mb
30.18 in
1022 mb
30.15 in
1021 mb
30.15 in
1021 mb
30.15 in
1021 mb
30.12 in
1020 mb
30.12 in
1020 mb
30.12 in
1020 mb
30.12 in
1020 mb
30.12 in
1020 mb
30.09 in
1019 mb
30.06 in
1018 mb
30.06 in
1018 mb
30 in
1016 mb
29.97 in
1015 mb
29.94 in
1014 mb
29.94 in
1014 mb
29.94 in
1014 mb
29.94 in
1014 mb
29.97 in
1015 mb
29.97 in
1015 mb
29.97 in
1015 mb
29.97 in
1015 mb
30 in
1016 mb
30 in
1016 mb
30 in
1016 mb
30.03 in
1017 mb
30.06 in
1018 mb
30.09 in
1019 mb
30.09 in
1019 mb
30.12 in
1020 mb
30.15 in
1021 mb
30.18 in
1022 mb
30.18 in
1022 mb
58%51%49%49%49%49%50%56%62%66%69%72%74%75%76%77%76%76%75%73%75%75%76%75%68%60%54%48%46%47%54%61%66%91%93%91%93%90%90%90%90%84%82%77%75%75%78%79%
WNWWNWWNWWNWWWNWWWWWSWSWSSSESSESSESSSSSWSSSESSESSESSESSESSSSWSWWSWWSWWWNWWNWWNWWNWNWNWNWWNWWNWNWNWNWNWNWNW
9 mph
14 km/h
10 mph
16 km/h
10 mph
15 km/h
9 mph
15 km/h
9 mph
15 km/h
8 mph
13 km/h
7 mph
12 km/h
5 mph
8 km/h
3 mph
5 km/h
2 mph
4 km/h
2 mph
3 km/h
1 mph
1 km/h
1 mph
2 km/h
1 mph
2 km/h
2 mph
4 km/h
2 mph
4 km/h
2 mph
4 km/h
3 mph
4 km/h
2 mph
4 km/h
2 mph
4 km/h
2 mph
4 km/h
3 mph
5 km/h
4 mph
6 km/h
5 mph
8 km/h
5 mph
8 km/h
6 mph
9 km/h
6 mph
10 km/h
7 mph
11 km/h
7 mph
11 km/h
6 mph
10 km/h
5 mph
8 km/h
3 mph
5 km/h
5 mph
8 km/h
5 mph
8 km/h
4 mph
6 km/h
5 mph
8 km/h
6 mph
10 km/h
8 mph
13 km/h
8 mph
13 km/h
7 mph
12 km/h
8 mph
13 km/h
10 mph
16 km/h
10 mph
17 km/h
10 mph
15 km/h
9 mph
14 km/h
9 mph
14 km/h
9 mph
14 km/h
7 mph
12 km/h
0%0%0%0%0%0%0%0%0%0%0%0%0%0%0%0%0%0%0%0%0%0%0%0%0%0%0%0%0%0%0%0%0%0%0%0%0%0%0%0%0%0%0%0%0%0%0%0%
6 mi
10 km
6 mi
10 km
6 mi
10 km
6 mi
10 km
6 mi
10 km
6 mi
10 km
6 mi
10 km
6 mi
10 km
6 mi
10 km
6 mi
10 km
6 mi
10 km
6 mi
10 km
6 mi
10 km
6 mi
10 km
6 mi
10 km
6 mi
10 km
6 mi
10 km
6 mi
10 km
6 mi
10 km
6 mi
10 km
6 mi
10 km
6 mi
10 km
6 mi
10 km
6 mi
10 km
6 mi
10 km
6 mi
10 km
6 mi
10 km
6 mi
10 km
6 mi
10 km
6 mi
10 km
6 mi
10 km
6 mi
10 km
6 mi
10 km
6 mi
10 km
1 mi
2 km
6 mi
10 km
6 mi
10 km
3 mi
5 km
6 mi
10 km
6 mi
10 km
3 mi
5 km
6 mi
10 km
6 mi
10 km
6 mi
10 km
6 mi
10 km
6 mi
10 km
6 mi
10 km
6 mi
10 km

Day/Time
Weather
Condition
Temperature
Dew Point
Pressure
Humidity
Wind Direction
Wind Speed
Prob Precip %
Visibility
Prob Precip % = Probability of Precipitation.